Location: Newark
(25.3833°N, 97.4000°E)
Time: 19:28:37
(UTC+00:00)

ISS - Visible Passes

Search period start: 08 December 2019 00:00
Search period end: 18 December 2019 00:00
Orbit: 411 x 421 km, 51.6° (Epoch: 08 December)

Date Brightness Start Highest point End Pass type
(mag) Time Alt. Az. Time Alt. Az. Time Alt. Az.
10 Dec -1.7 11:19:12 10° NNE 11:20:31 12° NE 11:21:04 11° NE visible
11 Dec -3.9 12:05:34 10° NW 12:08:56 82° NE 12:09:10 74° ESE visible
12 Dec -3.2 11:17:16 10° NNW 11:20:24 36° NE 11:23:32 10° ESE visible
12 Dec -0.4 12:55:57 10° WSW 12:56:49 11° SW 12:57:41 10° SW visible
13 Dec -1.1 12:05:46 10° WNW 12:08:25 22° SW 12:11:06 10° S visible
14 Dec -2.6 11:16:45 10° NW 11:19:59 48° SW 11:23:13 10° SSE visible
16 Dec -0.1 11:17:57 10° W 11:19:21 12° SW 11:20:44 10° SSW visible
